TimePST,TemperatureF,Dew PointF,Humidity,Sea Level PressureIn,VisibilityMPH,Wind Direction,Wind SpeedMPH,Gust SpeedMPH,PrecipitationIn,Events,Conditions,WindDirDegrees,DateUTC
5:55 AM,48.0,48.0,100,30.16,7.0,NNE,3.5,-,N/A,,Clear,20,2012-11-20 13:55:00
6:55 AM,49.8,46.0,87,30.16,7.0,North,4.6,-,N/A,,Unknown,360,2012-11-20 14:55:00
7:55 AM,52.0,46.4,81,30.17,7.0,NNW,3.5,-,N/A,,Unknown,340,2012-11-20 15:55:00
8:54 AM,55.9,50.4,82,30.17,7.0,North,4.6,-,N/A,,Clear,350,2012-11-20 16:54:00
9:54 AM,62.1,54.0,75,30.16,7.0,Calm,Calm,-,N/A,,Clear,0,2012-11-20 17:54:00
10:54 AM,64.0,55.0,73,30.14,7.0,West,8.1,-,N/A,,Clear,270,2012-11-20 18:54:00
11:54 AM,63.0,55.9,78,30.11,7.0,WSW,6.9,-,N/A,,Clear,240,2012-11-20 19:54:00
12:54 PM,64.0,57.0,78,30.09,7.0,WSW,8.1,-,N/A,,Clear,240,2012-11-20 20:54:00
1:54 PM,64.0,55.9,75,30.07,7.0,West,8.1,-,N/A,,Partly Cloudy,270,2012-11-20 21:54:00
2:54 PM,65.3,55.4,70,30.06,7.0,West,10.4,-,N/A,,Partly Cloudy,280,2012-11-20 22:54:00
3:54 PM,64.9,53.1,65,30.06,7.0,West,9.2,-,N/A,,Scattered Clouds,270,2012-11-20 23:54:00
4:54 PM,64.4,57.2,77,30.06,7.0,WNW,4.6,-,N/A,,Scattered Clouds,290,2012-11-21 00:54:00
5:54 PM,62.1,56.8,83,30.06,7.0,WNW,5.8,-,N/A,,Partly Cloudy,290,2012-11-21 01:54:00
6:54 PM,61.3,56.5,84,30.07,7.0,WNW,6.9,-,N/A,,Partly Cloudy,290,2012-11-21 02:54:00
7:54 PM,61.0,56.7,86,30.08,7.0,Calm,Calm,-,N/A,,Clear,0,2012-11-21 03:54:00
8:54 PM,59.9,55.8,86,30.08,7.0,Calm,Calm,-,N/A,,Clear,0,2012-11-21 04:54:00
9:54 PM,60.3,56.8,88,30.08,7.0,NNW,3.5,-,N/A,,Partly Cloudy,340,2012-11-21 05:54:00
10:45 PM,55.4,51.8,88,30.07,7.0,Calm,Calm,-,N/A,,Partly Cloudy,0,2012-11-21 06:45:00
10:54 PM,55.9,52.5,88,30.08,7.0,Calm,Calm,-,N/A,,Partly Cloudy,0,2012-11-21 06:54:00
11:05 PM,55.4,51.8,88,30.07,7.0,Calm,Calm,-,N/A,,Mostly Cloudy,0,2012-11-21 07:05:00
11:54 PM,55.8,52.2,88,30.07,7.0,NNE,4.6,-,N/A,,Mostly Cloudy,20,2012-11-21 07:54:00